Year,Month,Day,Hour,Minute,Value (Times are PST for temperature in C)
2013,05,05,00,00,17.30
2013,05,05,00,01,17.30
2013,05,05,00,02,17.40
2013,05,05,00,03,17.40
2013,05,05,00,04,17.40
2013,05,05,00,05,17.40
2013,05,05,00,06,17.40
2013,05,05,00,07,17.40
2013,05,05,00,08,17.40
2013,05,05,00,09,17.40
2013,05,05,00,10,17.50
2013,05,05,00,11,17.50
2013,05,05,00,12,17.50
2013,05,05,00,13,17.50
2013,05,05,00,14,17.50
2013,05,05,00,15,17.60
2013,05,05,00,16,17.60
2013,05,05,00,17,17.70
2013,05,05,00,18,17.90
2013,05,05,00,19,18.10
2013,05,05,00,20,18.30
2013,05,05,00,21,18.50
2013,05,05,00,22,18.70
2013,05,05,00,23,18.80
2013,05,05,00,24,18.90
2013,05,05,00,25,19.00
2013,05,05,00,26,18.90
2013,05,05,00,27,18.90
2013,05,05,00,28,18.80
2013,05,05,00,29,18.70
2013,05,05,00,30,18.60
2013,05,05,00,31,18.50
2013,05,05,00,32,18.50
2013,05,05,00,33,18.40
2013,05,05,00,34,18.40
2013,05,05,00,35,18.40
2013,05,05,00,36,18.40
2013,05,05,00,37,18.30
2013,05,05,00,38,18.30
2013,05,05,00,39,18.30
2013,05,05,00,40,18.40
2013,05,05,00,41,18.40
2013,05,05,00,42,18.40
2013,05,05,00,43,18.50
2013,05,05,00,44,18.60
2013,05,05,00,45,18.80
2013,05,05,00,46,19.00
2013,05,05,00,47,19.20
2013,05,05,00,48,19.30
2013,05,05,00,49,19.40
2013,05,05,00,50,19.50
2013,05,05,00,51,19.70
2013,05,05,00,52,19.80
2013,05,05,00,53,20.00
2013,05,05,00,54,20.10
2013,05,05,00,55,20.30
2013,05,05,00,56,20.30
2013,05,05,00,57,20.30
2013,05,05,00,58,20.40
2013,05,05,00,59,20.50
2013,05,05,01,00,20.50
2013,05,05,01,01,20.60
2013,05,05,01,02,20.60
2013,05,05,01,03,20.60
2013,05,05,01,04,20.60
2013,05,05,01,05,20.70
2013,05,05,01,06,20.70
2013,05,05,01,07,20.70
2013,05,05,01,08,20.70
2013,05,05,01,09,20.70
2013,05,05,01,10,20.70
2013,05,05,01,11,20.70
2013,05,05,01,12,20.70
2013,05,05,01,13,20.70
2013,05,05,01,14,20.70
2013,05,05,01,15,20.70
2013,05,05,01,16,20.70
2013,05,05,01,17,20.60
2013,05,05,01,18,20.60
2013,05,05,01,19,20.60
2013,05,05,01,20,20.50
2013,05,05,01,21,20.40
2013,05,05,01,22,20.40
2013,05,05,01,23,20.40
2013,05,05,01,24,20.40
2013,05,05,01,25,20.40
2013,05,05,01,26,20.40
2013,05,05,01,27,20.40
2013,05,05,01,28,20.40
2013,05,05,01,29,20.40
2013,05,05,01,30,20.40
2013,05,05,01,31,20.40
2013,05,05,01,32,20.40
2013,05,05,01,33,20.40
2013,05,05,01,34,20.40
2013,05,05,01,35,20.40
2013,05,05,01,36,20.40
2013,05,05,01,37,20.30
2013,05,05,01,38,20.30
2013,05,05,01,39,20.30
2013,05,05,01,40,20.30
2013,05,05,01,41,20.30
2013,05,05,01,42,20.30
2013,05,05,01,43,20.20
2013,05,05,01,44,20.20
2013,05,05,01,45,20.20
2013,05,05,01,46,20.20
2013,05,05,01,47,20.10
2013,05,05,01,48,20.10
2013,05,05,01,49,20.10
2013,05,05,01,50,20.10
2013,05,05,01,51,20.00
2013,05,05,01,52,20.00
2013,05,05,01,53,20.00
2013,05,05,01,54,20.00
2013,05,05,01,55,19.90
2013,05,05,01,56,19.90
2013,05,05,01,57,19.90
2013,05,05,01,58,19.90
2013,05,05,01,59,19.90
2013,05,05,02,00,19.90
2013,05,05,02,01,19.90
2013,05,05,02,02,19.90
2013,05,05,02,03,19.90
2013,05,05,02,04,19.90
2013,05,05,02,05,19.90
2013,05,05,02,06,19.80
2013,05,05,02,07,19.80
2013,05,05,02,08,19.80
2013,05,05,02,09,19.80
2013,05,05,02,10,19.70
2013,05,05,02,11,19.70
2013,05,05,02,12,19.70
2013,05,05,02,13,19.70
2013,05,05,02,14,19.70
2013,05,05,02,15,19.70
2013,05,05,02,16,19.70
2013,05,05,02,17,19.70
2013,05,05,02,18,19.70
2013,05,05,02,19,19.70
2013,05,05,02,20,19.70
2013,05,05,02,21,19.70
2013,05,05,02,22,19.70
2013,05,05,02,23,19.70
2013,05,05,02,24,19.70
2013,05,05,02,25,19.70
2013,05,05,02,26,19.70
2013,05,05,02,27,19.70
2013,05,05,02,28,19.70
2013,05,05,02,29,19.70
2013,05,05,02,30,19.70
2013,05,05,02,31,19.70
2013,05,05,02,32,19.70
2013,05,05,02,33,19.70
2013,05,05,02,34,19.70
2013,05,05,02,35,19.80
2013,05,05,02,36,19.80
2013,05,05,02,37,19.80
2013,05,05,02,38,19.80
2013,05,05,02,39,19.70
2013,05,05,02,40,19.70
2013,05,05,02,41,19.70
2013,05,05,02,42,19.60
2013,05,05,02,43,19.60
2013,05,05,02,44,19.60
2013,05,05,02,45,19.60
2013,05,05,02,46,19.60
2013,05,05,02,47,19.60
2013,05,05,02,48,19.60
2013,05,05,02,49,19.60
2013,05,05,02,50,19.60
2013,05,05,02,51,19.60
2013,05,05,02,52,19.50
2013,05,05,02,53,19.50
2013,05,05,02,54,19.50
2013,05,05,02,55,19.50
2013,05,05,02,56,19.50
2013,05,05,02,57,19.40
2013,05,05,02,58,19.40
2013,05,05,02,59,19.30
2013,05,05,03,00,19.30
2013,05,05,03,01,19.30
2013,05,05,03,02,19.30
2013,05,05,03,03,19.20
2013,05,05,03,04,19.20
2013,05,05,03,05,19.20
2013,05,05,03,06,19.10
2013,05,05,03,07,19.10
2013,05,05,03,08,19.00
2013,05,05,03,09,19.00
2013,05,05,03,10,18.90
2013,05,05,03,11,18.90
2013,05,05,03,12,18.90
2013,05,05,03,13,18.90
2013,05,05,03,14,18.90
2013,05,05,03,15,18.90
2013,05,05,03,16,18.80
2013,05,05,03,17,18.80
2013,05,05,03,18,18.80
2013,05,05,03,19,18.80
2013,05,05,03,20,18.80
2013,05,05,03,21,18.80
2013,05,05,03,22,18.80
2013,05,05,03,23,18.80
2013,05,05,03,24,18.80
2013,05,05,03,25,18.80
2013,05,05,03,26,18.80
2013,05,05,03,27,18.80
2013,05,05,03,28,18.80
2013,05,05,03,29,18.80
2013,05,05,03,30,18.80
2013,05,05,03,31,18.70
2013,05,05,03,32,18.70
2013,05,05,03,33,18.70
2013,05,05,03,34,18.80
2013,05,05,03,35,18.80
2013,05,05,03,36,18.80
2013,05,05,03,37,18.80
2013,05,05,03,38,18.90
2013,05,05,03,39,18.80
2013,05,05,03,40,18.80
2013,05,05,03,41,18.80
2013,05,05,03,42,18.80
2013,05,05,03,43,18.80
2013,05,05,03,44,18.80
2013,05,05,03,45,18.80
2013,05,05,03,46,18.80
2013,05,05,03,47,18.80
2013,05,05,03,48,18.80
2013,05,05,03,49,18.80
2013,05,05,03,50,18.80
2013,05,05,03,51,18.80
2013,05,05,03,52,18.70
2013,05,05,03,53,18.70
2013,05,05,03,54,18.70
2013,05,05,03,55,18.70
2013,05,05,03,56,18.70
2013,05,05,03,57,18.70
2013,05,05,03,58,18.60
2013,05,05,03,59,18.60
2013,05,05,04,00,18.60
2013,05,05,04,01,18.60
2013,05,05,04,02,18.50
2013,05,05,04,03,18.50
2013,05,05,04,04,18.50
2013,05,05,04,05,18.50
2013,05,05,04,06,18.40
2013,05,05,04,07,18.40
2013,05,05,04,08,18.40
2013,05,05,04,09,18.40
2013,05,05,04,10,18.40
2013,05,05,04,11,18.40
2013,05,05,04,12,18.40
2013,05,05,04,13,18.30
2013,05,05,04,14,18.30
2013,05,05,04,15,18.30
2013,05,05,04,16,18.30
2013,05,05,04,17,18.30
2013,05,05,04,18,18.20
2013,05,05,04,19,18.20
2013,05,05,04,20,18.20
2013,05,05,04,21,18.20
2013,05,05,04,22,18.10
2013,05,05,04,23,18.10
2013,05,05,04,24,18.10
2013,05,05,04,25,18.10
2013,05,05,04,26,18.10
2013,05,05,04,27,18.10
2013,05,05,04,28,18.10
2013,05,05,04,29,18.20
2013,05,05,04,30,18.20
2013,05,05,04,31,18.20
2013,05,05,04,32,18.20
2013,05,05,04,33,18.30
2013,05,05,04,34,18.30
2013,05,05,04,35,18.30
2013,05,05,04,36,18.30
2013,05,05,04,37,18.30
2013,05,05,04,38,18.30
2013,05,05,04,39,18.30
2013,05,05,04,40,18.30
2013,05,05,04,41,18.30
2013,05,05,04,42,18.30
2013,05,05,04,43,18.30
2013,05,05,04,44,18.30
2013,05,05,04,45,18.20
2013,05,05,04,46,18.20
2013,05,05,04,47,18.20
2013,05,05,04,48,18.20
2013,05,05,04,49,18.20
2013,05,05,04,50,18.20
2013,05,05,04,51,18.20
2013,05,05,04,52,18.20
2013,05,05,04,53,18.10
2013,05,05,04,54,18.10
2013,05,05,04,55,18.10
2013,05,05,04,56,18.00
2013,05,05,04,57,18.00
2013,05,05,04,58,18.00
2013,05,05,04,59,17.90
2013,05,05,05,00,17.90
2013,05,05,05,01,17.90
2013,05,05,05,02,17.80
2013,05,05,05,03,17.80
2013,05,05,05,04,17.80
2013,05,05,05,05,17.70
2013,05,05,05,06,17.70
2013,05,05,05,07,17.70
2013,05,05,05,08,17.60
2013,05,05,05,09,17.60
2013,05,05,05,10,17.50
2013,05,05,05,11,17.40
2013,05,05,05,12,17.40
2013,05,05,05,13,17.40
2013,05,05,05,14,17.30
2013,05,05,05,15,17.30
2013,05,05,05,16,17.30
2013,05,05,05,17,17.20
2013,05,05,05,18,17.20
2013,05,05,05,19,17.10
2013,05,05,05,20,17.00
2013,05,05,05,21,16.90
2013,05,05,05,22,16.80
2013,05,05,05,23,16.80
2013,05,05,05,24,16.70
2013,05,05,05,25,16.70
2013,05,05,05,26,16.70
2013,05,05,05,27,16.70
2013,05,05,05,28,16.70
2013,05,05,05,29,16.70
2013,05,05,05,30,16.80
2013,05,05,05,31,16.80
2013,05,05,05,32,16.80
2013,05,05,05,33,16.80
2013,05,05,05,34,16.70
2013,05,05,05,35,16.70
2013,05,05,05,36,16.60
2013,05,05,05,37,16.60
2013,05,05,05,38,16.60
2013,05,05,05,39,16.60
2013,05,05,05,40,16.70
2013,05,05,05,41,16.70
2013,05,05,05,42,16.80
2013,05,05,05,43,16.80
2013,05,05,05,44,16.80
2013,05,05,05,45,16.80
2013,05,05,05,46,16.80
2013,05,05,05,47,16.80
2013,05,05,05,48,16.80
2013,05,05,05,49,16.70
2013,05,05,05,50,16.70
2013,05,05,05,51,16.60
2013,05,05,05,52,16.60
2013,05,05,05,53,16.70
2013,05,05,05,54,16.70
2013,05,05,05,55,16.70
2013,05,05,05,56,16.80
2013,05,05,05,57,16.80
2013,05,05,05,58,16.80
2013,05,05,05,59,16.80
2013,05,05,06,00,16.80
2013,05,05,06,01,16.80
2013,05,05,06,02,16.80
2013,05,05,06,03,16.80
2013,05,05,06,04,16.80
2013,05,05,06,05,16.80
2013,05,05,06,06,16.80
2013,05,05,06,07,16.80
2013,05,05,06,08,16.80
2013,05,05,06,09,16.70
2013,05,05,06,10,16.70
2013,05,05,06,11,16.70
2013,05,05,06,12,16.70
2013,05,05,06,13,16.70
2013,05,05,06,14,16.70
2013,05,05,06,15,16.70
2013,05,05,06,16,16.70
2013,05,05,06,17,16.70
2013,05,05,06,18,16.70
2013,05,05,06,19,16.70
2013,05,05,06,20,16.70
2013,05,05,06,21,16.70
2013,05,05,06,22,16.70
2013,05,05,06,23,16.70
2013,05,05,06,24,16.70
2013,05,05,06,25,16.70
2013,05,05,06,26,16.70
2013,05,05,06,27,16.70
2013,05,05,06,28,16.70
2013,05,05,06,29,16.70
2013,05,05,06,30,16.70
2013,05,05,06,31,16.70
2013,05,05,06,32,16.70
2013,05,05,06,33,16.70
2013,05,05,06,34,16.70
2013,05,05,06,35,16.80
2013,05,05,06,36,16.80
2013,05,05,06,37,16.80
2013,05,05,06,38,16.80
2013,05,05,06,39,16.80
2013,05,05,06,40,16.80
2013,05,05,06,41,16.80
2013,05,05,06,42,16.80
2013,05,05,06,43,16.70
2013,05,05,06,44,16.70
2013,05,05,06,45,16.70
2013,05,05,06,46,16.60
2013,05,05,06,47,16.60
2013,05,05,06,48,16.60
2013,05,05,06,49,16.50
2013,05,05,06,50,16.50
2013,05,05,06,51,16.50
2013,05,05,06,52,16.60
2013,05,05,06,53,16.60
2013,05,05,06,54,16.70
2013,05,05,06,55,16.80
2013,05,05,06,56,16.90
2013,05,05,06,57,16.90
2013,05,05,06,58,17.00
2013,05,05,06,59,17.10
2013,05,05,07,00,17.20
2013,05,05,07,01,17.20
2013,05,05,07,02,17.30
2013,05,05,07,03,17.30
2013,05,05,07,04,17.30
2013,05,05,07,05,17.40
2013,05,05,07,06,17.40
2013,05,05,07,07,17.40
2013,05,05,07,08,17.50
2013,05,05,07,09,17.50
2013,05,05,07,10,17.60
2013,05,05,07,11,17.60
2013,05,05,07,12,17.70
2013,05,05,07,13,17.70
2013,05,05,07,14,17.70
2013,05,05,07,15,17.80
2013,05,05,07,16,17.80
2013,05,05,07,17,17.80
2013,05,05,07,18,17.90
2013,05,05,07,19,17.90
2013,05,05,07,20,17.90
2013,05,05,07,21,17.90
2013,05,05,07,22,18.00
2013,05,05,07,23,18.00
2013,05,05,07,24,18.00
2013,05,05,07,25,18.10
2013,05,05,07,26,18.10
2013,05,05,07,27,18.10
2013,05,05,07,28,18.10
2013,05,05,07,29,18.20
2013,05,05,07,30,18.20
2013,05,05,07,31,18.20
2013,05,05,07,32,18.20
2013,05,05,07,33,18.20
2013,05,05,07,34,18.20
2013,05,05,07,35,18.20
2013,05,05,07,36,18.20
2013,05,05,07,37,18.10
2013,05,05,07,38,18.10
2013,05,05,07,39,18.10
2013,05,05,07,40,18.10
2013,05,05,07,41,18.10
2013,05,05,07,42,18.10
2013,05,05,07,43,18.20
2013,05,05,07,44,18.20
2013,05,05,07,45,18.20
2013,05,05,07,46,18.20
2013,05,05,07,47,18.20
2013,05,05,07,48,18.30
2013,05,05,07,49,18.30
2013,05,05,07,50,18.30
2013,05,05,07,51,18.40
2013,05,05,07,52,18.40
2013,05,05,07,53,18.50
2013,05,05,07,54,18.60
2013,05,05,07,55,18.60
2013,05,05,07,56,18.60
2013,05,05,07,57,18.70
2013,05,05,07,58,18.70
2013,05,05,07,59,18.70
2013,05,05,08,00,18.80
2013,05,05,08,01,18.80
2013,05,05,08,02,18.80
2013,05,05,08,03,18.90
2013,05,05,08,04,18.70
2013,05,05,08,05,18.60
2013,05,05,08,06,18.60
2013,05,05,08,07,18.60
2013,05,05,08,08,18.60
2013,05,05,08,09,18.60
2013,05,05,08,10,18.70
2013,05,05,08,11,18.70
2013,05,05,08,12,18.80
2013,05,05,08,13,18.80
2013,05,05,08,14,18.90
2013,05,05,08,15,18.90
2013,05,05,08,16,18.80
2013,05,05,08,17,18.80
2013,05,05,08,18,18.80
2013,05,05,08,19,18.80
2013,05,05,08,20,18.90
2013,05,05,08,21,18.90
2013,05,05,08,22,19.00
2013,05,05,08,23,19.10
2013,05,05,08,24,19.20
2013,05,05,08,25,19.20
2013,05,05,08,26,19.20
2013,05,05,08,27,19.10
2013,05,05,08,28,19.00
2013,05,05,08,29,18.90
2013,05,05,08,30,18.90
2013,05,05,08,31,18.90
2013,05,05,08,32,18.90
2013,05,05,08,33,19.00
2013,05,05,08,34,19.10
2013,05,05,08,35,19.20
2013,05,05,08,36,19.20
2013,05,05,08,37,19.30
2013,05,05,08,38,19.30
2013,05,05,08,39,19.40
2013,05,05,08,40,19.40
2013,05,05,08,41,19.40
2013,05,05,08,42,19.50
2013,05,05,08,43,19.50
2013,05,05,08,44,19.50
2013,05,05,08,45,19.50
2013,05,05,08,46,19.50
2013,05,05,08,47,19.40
2013,05,05,08,48,19.40
2013,05,05,08,49,19.40
2013,05,05,08,50,19.40
2013,05,05,08,51,19.30
2013,05,05,08,52,19.30
2013,05,05,08,53,19.30
2013,05,05,08,54,19.30
2013,05,05,08,55,19.30
2013,05,05,08,56,19.20
2013,05,05,08,57,19.20
2013,05,05,08,58,19.20
2013,05,05,08,59,19.20
2013,05,05,09,00,19.20
2013,05,05,09,01,19.20
2013,05,05,09,02,19.20
2013,05,05,09,03,19.20
2013,05,05,09,04,19.20
2013,05,05,09,05,19.20
2013,05,05,09,06,19.20
2013,05,05,09,07,19.20
2013,05,05,09,08,19.20
2013,05,05,09,09,19.30
2013,05,05,09,10,19.30
2013,05,05,09,11,19.30
2013,05,05,09,12,19.30
2013,05,05,09,13,19.30
2013,05,05,09,14,19.40
2013,05,05,09,15,19.50
2013,05,05,09,16,19.50
2013,05,05,09,17,19.60
2013,05,05,09,18,19.60
2013,05,05,09,19,19.70
2013,05,05,09,20,19.70
2013,05,05,09,21,19.80
2013,05,05,09,22,19.90
2013,05,05,09,23,19.90
2013,05,05,09,24,19.90
2013,05,05,09,25,19.90
2013,05,05,09,26,20.00
2013,05,05,09,27,20.10
2013,05,05,09,28,20.10
2013,05,05,09,29,20.10
2013,05,05,09,30,20.10
2013,05,05,09,31,20.10
2013,05,05,09,32,20.10
2013,05,05,09,33,20.10
2013,05,05,09,34,20.10
2013,05,05,09,35,20.10
2013,05,05,09,36,20.10
2013,05,05,09,37,20.10
2013,05,05,09,38,20.10
2013,05,05,09,39,20.10
2013,05,05,09,40,20.20
2013,05,05,09,41,20.20
2013,05,05,09,42,20.30
2013,05,05,09,43,20.30
2013,05,05,09,44,20.40
2013,05,05,09,45,20.40
2013,05,05,09,46,20.50
2013,05,05,09,47,20.50
2013,05,05,09,48,20.60
2013,05,05,09,49,20.60
2013,05,05,09,50,20.70
2013,05,05,09,51,20.80
2013,05,05,09,52,20.80
2013,05,05,09,53,20.90
2013,05,05,09,54,20.90
2013,05,05,09,55,21.00
2013,05,05,09,56,21.00
2013,05,05,09,57,21.10
2013,05,05,09,58,21.20
2013,05,05,09,59,21.30
2013,05,05,10,00,21.30
2013,05,05,10,01,21.30
2013,05,05,10,02,21.40
2013,05,05,10,03,21.40
2013,05,05,10,04,21.50
2013,05,05,10,05,21.60
2013,05,05,10,06,21.60
2013,05,05,10,07,21.60
2013,05,05,10,08,21.70
2013,05,05,10,09,21.70
2013,05,05,10,10,21.70
2013,05,05,10,11,21.70
2013,05,05,10,12,21.70
2013,05,05,10,13,21.70
2013,05,05,10,14,21.60
2013,05,05,10,15,21.50
2013,05,05,10,16,21.40
2013,05,05,10,17,21.40
2013,05,05,10,18,21.30
2013,05,05,10,19,21.30
2013,05,05,10,20,21.20
2013,05,05,10,21,21.10
2013,05,05,10,22,21.10
2013,05,05,10,23,21.10
2013,05,05,10,24,21.10
2013,05,05,10,25,21.00
2013,05,05,10,26,21.00
2013,05,05,10,27,21.10
2013,05,05,10,28,21.10
2013,05,05,10,29,21.10
2013,05,05,10,30,21.10
2013,05,05,10,31,21.10
2013,05,05,10,32,21.10
2013,05,05,10,33,21.10
2013,05,05,10,34,21.10
2013,05,05,10,35,21.10
2013,05,05,10,36,21.10
2013,05,05,10,37,21.10
2013,05,05,10,38,21.20
2013,05,05,10,39,21.20
2013,05,05,10,40,21.20
2013,05,05,10,41,21.20
2013,05,05,10,42,21.30
2013,05,05,10,43,21.30
2013,05,05,10,44,21.30
2013,05,05,10,45,21.30
2013,05,05,10,46,21.30
2013,05,05,10,47,21.30
2013,05,05,10,48,21.30
2013,05,05,10,49,21.30
2013,05,05,10,50,21.30
2013,05,05,10,51,21.30
2013,05,05,10,52,21.30
2013,05,05,10,53,21.40
2013,05,05,10,54,21.40
2013,05,05,10,55,21.40
2013,05,05,10,56,21.50
2013,05,05,10,57,21.50
2013,05,05,10,58,21.50
2013,05,05,10,59,21.60
2013,05,05,11,00,21.60
2013,05,05,11,01,21.70
2013,05,05,11,02,21.80
2013,05,05,11,03,21.90
2013,05,05,11,04,22.00
2013,05,05,11,05,22.10
2013,05,05,11,06,22.20
2013,05,05,11,07,22.20
2013,05,05,11,08,22.20
2013,05,05,11,09,22.30
2013,05,05,11,10,22.30
2013,05,05,11,11,22.30
2013,05,05,11,12,22.40
2013,05,05,11,13,22.40
2013,05,05,11,14,22.40
2013,05,05,11,15,22.40
2013,05,05,11,16,22.30
2013,05,05,11,17,22.30
2013,05,05,11,18,22.30
2013,05,05,11,19,22.30
2013,05,05,11,20,22.30
2013,05,05,11,21,22.30
2013,05,05,11,22,22.40
2013,05,05,11,23,22.40
2013,05,05,11,24,22.30
2013,05,05,11,25,22.30
2013,05,05,11,26,22.30
2013,05,05,11,27,22.30
2013,05,05,11,28,22.30
2013,05,05,11,29,22.30
2013,05,05,11,30,22.40
2013,05,05,11,31,22.40
2013,05,05,11,32,22.50
2013,05,05,11,33,22.50
2013,05,05,11,34,22.50
2013,05,05,11,35,22.40
2013,05,05,11,36,22.50
2013,05,05,11,37,22.40
2013,05,05,11,38,22.40
2013,05,05,11,39,22.40
2013,05,05,11,40,22.40
2013,05,05,11,41,22.40
2013,05,05,11,42,22.40
2013,05,05,11,43,22.50
2013,05,05,11,44,22.50
2013,05,05,11,45,22.60
2013,05,05,11,46,22.60
2013,05,05,11,47,22.70
2013,05,05,11,48,22.70
2013,05,05,11,49,22.70
2013,05,05,11,50,22.70
2013,05,05,11,51,22.70
2013,05,05,11,52,22.70
2013,05,05,11,53,22.80
2013,05,05,11,54,22.90
2013,05,05,11,55,22.90
2013,05,05,11,56,22.90
2013,05,05,11,57,22.90
2013,05,05,11,58,23.00
2013,05,05,11,59,23.00
2013,05,05,12,00,22.90
2013,05,05,12,01,23.00
2013,05,05,12,02,23.00
2013,05,05,12,03,23.00
2013,05,05,12,04,23.00
2013,05,05,12,05,23.00
2013,05,05,12,06,22.90
2013,05,05,12,07,23.00
2013,05,05,12,08,23.00
2013,05,05,12,09,23.10
2013,05,05,12,10,23.10
2013,05,05,12,11,23.10
2013,05,05,12,12,23.20
2013,05,05,12,13,23.30
2013,05,05,12,14,23.30
2013,05,05,12,15,23.20
2013,05,05,12,16,23.20
2013,05,05,12,17,23.20
2013,05,05,12,18,23.20
2013,05,05,12,19,23.20
2013,05,05,12,20,23.30
2013,05,05,12,21,23.30
2013,05,05,12,22,23.40
2013,05,05,12,23,23.50
2013,05,05,12,24,23.50
2013,05,05,12,25,23.60
2013,05,05,12,26,23.60
2013,05,05,12,27,23.70
2013,05,05,12,28,23.70
2013,05,05,12,29,23.70
2013,05,05,12,30,23.80
2013,05,05,12,31,23.80
2013,05,05,12,32,23.90
2013,05,05,12,33,24.00
2013,05,05,12,34,24.00
2013,05,05,12,35,24.10
2013,05,05,12,36,24.10
2013,05,05,12,37,24.10
2013,05,05,12,38,24.10
2013,05,05,12,39,24.20
2013,05,05,12,40,24.20
2013,05,05,12,41,24.20
2013,05,05,12,42,24.10
2013,05,05,12,43,24.10
2013,05,05,12,44,24.20
2013,05,05,12,45,24.20
2013,05,05,12,46,24.20
2013,05,05,12,47,24.20
2013,05,05,12,48,24.30
2013,05,05,12,49,24.30
2013,05,05,12,50,24.40
2013,05,05,12,51,24.40
2013,05,05,12,52,24.40
2013,05,05,12,53,24.40
2013,05,05,12,54,24.50
2013,05,05,12,55,24.50
2013,05,05,12,56,24.40
2013,05,05,12,57,24.40
2013,05,05,12,58,24.30
2013,05,05,12,59,24.30
2013,05,05,13,00,24.30
2013,05,05,13,01,24.30
2013,05,05,13,02,24.30
2013,05,05,13,03,24.30
2013,05,05,13,04,24.30
2013,05,05,13,05,24.30
2013,05,05,13,06,24.30
2013,05,05,13,07,24.30
2013,05,05,13,08,24.30
2013,05,05,13,09,24.30
2013,05,05,13,10,24.30
2013,05,05,13,11,24.40
2013,05,05,13,12,24.40
2013,05,05,13,13,24.40
2013,05,05,13,14,24.30
2013,05,05,13,15,24.40
2013,05,05,13,16,24.40
2013,05,05,13,17,24.40
2013,05,05,13,18,24.50
2013,05,05,13,19,24.50
2013,05,05,13,20,24.60
2013,05,05,13,21,24.60
2013,05,05,13,22,24.60
2013,05,05,13,23,24.70
2013,05,05,13,24,24.70
2013,05,05,13,25,24.70
2013,05,05,13,26,24.70
2013,05,05,13,27,24.60
2013,05,05,13,28,24.60
2013,05,05,13,29,24.70
2013,05,05,13,30,24.70
2013,05,05,13,31,24.70
2013,05,05,13,32,24.70
2013,05,05,13,33,24.70
2013,05,05,13,34,24.70
2013,05,05,13,35,24.70
2013,05,05,13,36,24.70
2013,05,05,13,37,24.80
2013,05,05,13,38,24.80
2013,05,05,13,39,24.80
2013,05,05,13,40,24.80
2013,05,05,13,41,24.80
2013,05,05,13,42,24.80
2013,05,05,13,43,24.80
2013,05,05,13,44,24.80
2013,05,05,13,45,24.80
2013,05,05,13,46,24.80
2013,05,05,13,47,24.80
2013,05,05,13,48,24.80
2013,05,05,13,49,24.80
2013,05,05,13,50,24.80
2013,05,05,13,51,24.80
2013,05,05,13,52,24.80
2013,05,05,13,53,24.80
2013,05,05,13,54,24.80
2013,05,05,13,55,24.80
2013,05,05,13,56,24.80
2013,05,05,13,57,24.80
2013,05,05,13,58,24.80
2013,05,05,13,59,24.80
2013,05,05,14,00,24.80
2013,05,05,14,01,24.80
2013,05,05,14,02,24.80
2013,05,05,14,03,24.90
2013,05,05,14,04,24.90
2013,05,05,14,05,24.80
2013,05,05,14,06,24.80
2013,05,05,14,07,24.80
2013,05,05,14,08,24.80
2013,05,05,14,09,24.90
2013,05,05,14,10,24.90
2013,05,05,14,11,24.90
2013,05,05,14,12,24.90
2013,05,05,14,13,25.00
2013,05,05,14,14,25.00
2013,05,05,14,15,25.10
2013,05,05,14,16,25.10
2013,05,05,14,17,25.10
2013,05,05,14,18,25.20
2013,05,05,14,19,25.20
2013,05,05,14,20,25.30
2013,05,05,14,21,25.30
2013,05,05,14,22,25.30
2013,05,05,14,23,25.30
2013,05,05,14,24,25.40
2013,05,05,14,25,25.40
2013,05,05,14,26,25.40
2013,05,05,14,27,25.50
2013,05,05,14,28,25.50
2013,05,05,14,29,25.50
2013,05,05,14,30,25.50
2013,05,05,14,31,25.50
2013,05,05,14,32,25.50
2013,05,05,14,33,25.60
2013,05,05,14,34,25.60
2013,05,05,14,35,25.60
2013,05,05,14,36,25.70
2013,05,05,14,37,25.70
2013,05,05,14,38,25.70
2013,05,05,14,39,25.70
2013,05,05,14,40,25.70
2013,05,05,14,41,25.70
2013,05,05,14,42,25.70
2013,05,05,14,43,25.70
2013,05,05,14,44,25.70
2013,05,05,14,45,25.70
2013,05,05,14,46,25.70
2013,05,05,14,47,25.70
2013,05,05,14,48,25.80
2013,05,05,14,49,25.90
2013,05,05,14,50,25.90
2013,05,05,14,51,26.00
2013,05,05,14,52,26.00
2013,05,05,14,53,26.00
2013,05,05,14,54,26.10
2013,05,05,14,55,26.10
2013,05,05,14,56,26.10
2013,05,05,14,57,26.00
2013,05,05,14,58,26.00
2013,05,05,14,59,26.10
2013,05,05,15,00,26.10
2013,05,05,15,01,26.10
2013,05,05,15,02,26.00
2013,05,05,15,03,26.00
2013,05,05,15,04,26.00
2013,05,05,15,05,26.10
2013,05,05,15,06,26.10
2013,05,05,15,07,26.10
2013,05,05,15,08,26.20
2013,05,05,15,09,26.20
2013,05,05,15,10,26.30
2013,05,05,15,11,26.30
2013,05,05,15,12,26.40
2013,05,05,15,13,26.40
2013,05,05,15,14,26.40
2013,05,05,15,15,26.40
2013,05,05,15,16,26.50
2013,05,05,15,17,26.50
2013,05,05,15,18,26.40
2013,05,05,15,19,26.50
2013,05,05,15,20,26.40
2013,05,05,15,21,26.30
2013,05,05,15,22,26.30
2013,05,05,15,23,26.40
2013,05,05,15,24,26.40
2013,05,05,15,25,26.40
2013,05,05,15,26,26.40
2013,05,05,15,27,26.50
2013,05,05,15,28,26.50
2013,05,05,15,29,26.60
2013,05,05,15,30,26.70
2013,05,05,15,31,26.70
2013,05,05,15,32,26.70
2013,05,05,15,33,26.80
2013,05,05,15,34,26.80
2013,05,05,15,35,26.90
2013,05,05,15,36,26.90
2013,05,05,15,37,26.90
2013,05,05,15,38,26.90
2013,05,05,15,39,26.80
2013,05,05,15,40,26.80
2013,05,05,15,41,26.80
2013,05,05,15,42,26.80
2013,05,05,15,43,26.80
2013,05,05,15,44,26.90
2013,05,05,15,45,26.90
2013,05,05,15,46,26.90
2013,05,05,15,47,26.80
2013,05,05,15,48,26.80
2013,05,05,15,49,26.70
2013,05,05,15,50,26.80
2013,05,05,15,51,26.80
2013,05,05,15,52,26.90
2013,05,05,15,53,27.00
2013,05,05,15,54,27.00
2013,05,05,15,55,27.00
2013,05,05,15,56,27.00
2013,05,05,15,57,27.00
2013,05,05,15,58,27.10
2013,05,05,15,59,27.20
2013,05,05,16,00,27.20
2013,05,05,16,01,27.30
2013,05,05,16,02,27.40
2013,05,05,16,03,27.50
2013,05,05,16,04,27.50
2013,05,05,16,05,27.60
2013,05,05,16,06,27.60
2013,05,05,16,07,27.60
2013,05,05,16,08,27.60
2013,05,05,16,09,27.60
2013,05,05,16,10,27.60
2013,05,05,16,11,27.70
2013,05,05,16,12,27.70
2013,05,05,16,13,27.70
2013,05,05,16,14,27.70
2013,05,05,16,15,27.70
2013,05,05,16,16,27.70
2013,05,05,16,17,27.70
2013,05,05,16,18,27.70
2013,05,05,16,19,27.70
2013,05,05,16,20,27.70
2013,05,05,16,21,27.70
2013,05,05,16,22,27.70
2013,05,05,16,23,27.70
2013,05,05,16,24,27.60
2013,05,05,16,25,27.60
2013,05,05,16,26,27.60
2013,05,05,16,27,27.50
2013,05,05,16,28,27.60
2013,05,05,16,29,27.60
2013,05,05,16,30,27.60
2013,05,05,16,31,27.60
2013,05,05,16,32,27.50
2013,05,05,16,33,27.60
2013,05,05,16,34,27.60
2013,05,05,16,35,27.60
2013,05,05,16,36,27.70
2013,05,05,16,37,27.70
2013,05,05,16,38,27.80
2013,05,05,16,39,27.80
2013,05,05,16,40,27.90
2013,05,05,16,41,27.90
2013,05,05,16,42,28.00
2013,05,05,16,43,28.10
2013,05,05,16,44,28.10
2013,05,05,16,45,28.20
2013,05,05,16,46,28.30
2013,05,05,16,47,28.30
2013,05,05,16,48,28.30
2013,05,05,16,49,28.30
2013,05,05,16,50,28.40
2013,05,05,16,51,28.40
2013,05,05,16,52,28.50
2013,05,05,16,53,28.50
2013,05,05,16,54,28.60
2013,05,05,16,55,28.50
2013,05,05,16,56,28.40
2013,05,05,16,57,28.40
2013,05,05,16,58,28.40
2013,05,05,16,59,28.40
2013,05,05,17,00,28.40
2013,05,05,17,01,28.50
2013,05,05,17,02,28.50
2013,05,05,17,03,28.50
2013,05,05,17,04,28.50
2013,05,05,17,05,28.50
2013,05,05,17,06,28.60
2013,05,05,17,07,28.60
2013,05,05,17,08,28.60
2013,05,05,17,09,28.60
2013,05,05,17,10,28.60
2013,05,05,17,11,28.60
2013,05,05,17,12,28.70
2013,05,05,17,13,28.70
2013,05,05,17,14,28.70
2013,05,05,17,15,28.70
2013,05,05,17,16,28.80
2013,05,05,17,17,28.80
2013,05,05,17,18,28.80
2013,05,05,17,19,28.80